STARLINK-1063, 44768

Orbit data source: Space-Track

STARLINK-1063, 44768 is a payload satellite owned by SpaceX/Seattle (US) in LEO that was launched on Mon, 11 Nov 2019 UTC via an FALCON 9 launch vehicle from the Air Force Eastern Test Range (AFETR). Payload-class satellites include a variety of spacecraft equipped with specific instruments for various scientific and technological missions. These include communications satellites like Starlink; space stations such as the ISS; scientific satellites like the Hubble; Earth observation satellites from companies like Planet Labs, Umbra, and HawkEye 360; GPS; miniature CubeSats for education and research; and military/defense satellites.

Loading next visibility...
Identifier
44768, 2019-074BH
Orbit
LEO
Country
Flag of USUS
Related business
Manufacturer
SpaceX/Seattle
Mission
Operational Commercial Communications
Bus & Motor
STARLINK, Unknown motor
Mass
260 kg wet, ~248 kg dry
Launch date (UTC)
2019-11-11 (6 years ago)
Launch vehicle
FALCON 9
Launch site
Air Force Eastern Test Range (AFETR)
Object type
Payload
Rocket body
Debris
Shape & HBR
Box + 1 Pan, 10.1 m
Radar Cross Section
13.562 m², Large (>1 m²)

Expand to show TLE details & history
Last TLE update: 8 hours ago

TLE from 8 hours ago
0 STARLINK-1063
1 44768U 19074BH  25288.65587280  .00003545  00000-0  25679-3 0  9995
2 44768  53.0532 157.7018 0001366  86.9303 273.1842 15.06397818326346
Epoch: 2025-10-15T15:44Z
TLE epoch observation values (Epoch: 2025-10-15T15:44:27.409Z)
Latitude
-0.00006°
Longitude
-102.83928°
Altitude
548.045 km
Speed
7.589 km/s
True Right ascension
10h 30m 48s
True Declination
0° 00' 00"
Sunlit
Object was in daylight at epoch
Visualization orbit readout
Latitude
Unknown
Longitude
Unknown
Altitude
Unknown
Speed
Unknown
Apparent Right ascension
Unknown
Apparent Declination
Unknown
Sunlit
N/A
Visualization observer readout
Local Sidereal Time
18:36:57
Azimuth
Unknown
Elevation
Unknown
Doppler factor
Unknown
Orbital elements
Apogee altitude
548.435 km
Perigee altitude
546.543 km
Semi-major axis
6,925.626 km
Eccentricity
0.00014
Inclination
53.0532°
RAAN
157.7018°
Arg. of periapsis
86.9303°
True anomaly
273.16857°
Mean anomaly
273.1842°
Eccentric anomaly
273.17639°
Mean motion
3.76578 °/min
Orbital period
95.6 mins
BSTAR
0.00025679
Loading maneuver chart data...
Computing Atmospheric mass density...
Loading historical data...
Loading historical data...
Loading historical data...
Loading historical data...
Loading historical data...
Loading historical data...
Loading historical data...

Documentation

Showing up to 5 results
|